Location: Unspecified
(49.2170°N, 0.0000°E)
Time: 09:56:11
(UTC+00:00)

A-11 Canister half - Pass Details

Date: 17 June 2019
Orbit: 1526 x 1683 km, 47.3° (Epoch: 18 July)

Event Time Altitude Azimuth Distance (km) Brightness Sun altitude
Rises 08:40:22 0° 266° (W) 4,691 11.1 43.2°
Reaches altitude 10° 08:43:25 10° 265° (W) 3,700 10.7 43.7°
Maximum altitude 08:52:43 81° 181° (S) 1,548 10.0 45.2°
Drops below altitude 10° 09:02:05 10° 96° (E) 3,721 12.0 46.6°
Sets 09:05:09 0° 95° (E) 4,718 12.2 47.1°
